www.pogodaiklimat.ru

Архив погоды в Ганновере (Германия)

Время
(UTC), дата
19 21.01
20 21.01
21 21.01
22 21.01
23 21.01
00 22.01
01 22.01
02 22.01
03 22.01
04 22.01
05 22.01
06 22.01
07 22.01
08 22.01
09 22.01
10 22.01
11 22.01
12 22.01
13 22.01
14 22.01
15 22.01
16 22.01
17 22.01
18 22.01
19 22.01
20 22.01
21 22.01
22 22.01
23 22.01
00 23.01
01 23.01
02 23.01
03 23.01
04 23.01
05 23.01
06 23.01
07 23.01
08 23.01
09 23.01
10 23.01
11 23.01
12 23.01
13 23.01
14 23.01
15 23.01
16 23.01
17 23.01
18 23.01
19 23.01
20 23.01
21 23.01
22 23.01
23 23.01
00 24.01
01 24.01
02 24.01
03 24.01
04 24.01
05 24.01
06 24.01
07 24.01
08 24.01
09 24.01
10 24.01
11 24.01
12 24.01
13 24.01
14 24.01
15 24.01
16 24.01
17 24.01
18 24.01
19 24.01
20 24.01
21 24.01
22 24.01
23 24.01
00 25.01
01 25.01
02 25.01
03 25.01
04 25.01
05 25.01
06 25.01
07 25.01
08 25.01
09 25.01
10 25.01
11 25.01
12 25.01
13 25.01
14 25.01
15 25.01
16 25.01
17 25.01
18 25.01
19 25.01
20 25.01
21 25.01
22 25.01
23 25.01
00 26.01
01 26.01
02 26.01
03 26.01
04 26.01
05 26.01
06 26.01
07 26.01
08 26.01
09 26.01
10 26.01
11 26.01
12 26.01
13 26.01
14 26.01
15 26.01
16 26.01
17 26.01
18 26.01
19 26.01
20 26.01
21 26.01
22 26.01
23 26.01
00 27.01
01 27.01
02 27.01
03 27.01
04 27.01
05 27.01
06 27.01
07 27.01
08 27.01
09 27.01
10 27.01
11 27.01
12 27.01
13 27.01
14 27.01
15 27.01
16 27.01
17 27.01
18 27.01
19 27.01
20 27.01
21 27.01
22 27.01
23 27.01
00 28.01
01 28.01
02 28.01
03 28.01
04 28.01
05 28.01
06 28.01
07 28.01
08 28.01
09 28.01
10 28.01
11 28.01
12 28.01
13 28.01
14 28.01
15 28.01
16 28.01
17 28.01
Ветер
(напр.,м/с)
Видим. Явления Облачность Т
(С)
Тd
(С)
f
(%)
Тe
(С)
Тes
(С)
Комфортность P
(гПа)
Po
(гПа)
Тmin
(С)
Tmax
(С)
R
(мм)
R24
(мм)
S
(см)
З 7-9
{9}
2800 м слаб. морось 10/9 90 м
[St]
+4.6 +4.3 98 -1 -1 по сезону 1027.0 1019.5
З 7-10
{10}
3500 м слаб. морось 10/9 120 м
[Frnb]
+5.2 +5.0 99 -1 -1 тепло 1026.9 1019.5
З 7 3000 м слаб. морось 10/9 90 м
[Frnb]
+5.4 +5.1 98 -0 -0 по сезону 1026.8 1019.4 0.2
З 8-10
{11}
15 км дождь {морось} 10/9 150 м
[Frnb]
+5.6 +5.2 97 -0 -0 тепло 1026.7 1019.3
З 8-11
{11}
4200 м дождь 10/9 120 м
[Frnb]
+5.5 +5.2 98 -0 -0 тепло 1026.8 1019.4
З 7 6000 м дождь {морось} 10/9 100 м
[Frnb]
+5.5 +5.2 98 -0 -0 по сезону 1026.9 1019.5 0.4
З 7-9
{11}
3200 м дождь 10/9 120 м
[Frnb]
+5.5 +5.3 99 -0 -0 тепло 1026.7 1019.3
З 7-11
{11}
11 км в посл. час дождь 10/9 120 м
[Frnb]
+5.6 +5.3 98 0 0 тепло 1026.9 1019.5
З 7 4200 м дождь 10/9 120 м
[Frnb]
+5.7 +5.5 99 0 0 по сезону 1027.1 1019.7 0.1
З 5-8
{10}
4200 м дождь 10/9 120 м
[Frnb]
+5.8 +5.6 99 +1 +1 тепло 1027.7 1020.3
СЗ 6-9
{9}
3500 м дождь 10/9 120 м
[Frnb]
+6.1 +5.9 99 +1 +1 тепло 1027.8 1020.4
СЗ 6 4000 м слаб. морось {дождь} 10/9 100 м
[Frnb]
+6.2 +5.8 97 +1 +1 по сезону 1028.2 1020.8 +3.8 +6.2 1
СЗ 5 30 км в посл. час морось 9/9 270 м
[Sc]
+6.1 +5.3 95 +2 +2 тепло 1028.9 1021.5
СЗ 5-8
{8}
15 км 10/9 150 м
[St]
+5.9 +5.4 97 +1 +1 тепло 1029.3 1021.9
СЗ 4 7000 м в посл. час морось 10/9 150 м
[St]
+6.0 +5.7 98 +2 +2 по сезону 1029.6 1022.2 0.0
СЗ 6 30 км в посл. час морось 9/8 270 м
[St As trans]
+6.3 +5.2 93 +1 +2 тепло 1030.1 1022.7
СЗ 5-7
{8}
4500 м дождь 10/9 210 м
[Frnb]
+6.4 +5.9 97 +2 +2 тепло 1030.2 1022.8
З 4 4000 м слаб. морось {дождь} 10/9 150 м
[Frnb]
+6.4 +6.0 97 +2 +3 по сезону 1030.3 1022.9 0.1
З 5-7
{7}
2800 м дождь {морось} 10/9 210 м
[Frnb]
+6.4 +6.0 97 +2 +2 тепло 1030.7 1023.3
СЗ 5 5000 м дождь 10/9 210 м
[Sc]
+6.4 +5.7 95 +2 +2 тепло 1030.5 1023.1
З 5 7000 м дождь 9/9 210 м
[Sc]
+6.2 +5.3 94 +2 +2 по сезону 1030.7 1023.3 0.4
З 5 15 км в посл. час дождь 9/9 240 м
[Sc]
+5.8 +5.2 96 +1 +1 тепло 1031.0 1023.5
З 5-7
{7}
6000 м в посл. час дождь 9/9 240 м
[St]
+5.6 +5.1 97 +1 +1 тепло 1031.4 1023.9
СЗ 4 40 км {дождь, морось} 9/9 200 м
[St]
+5.3 +4.7 96 +1 +1 по сезону 1031.9 1024.4 +5.1 +6.9 0.1
СЗ 3-4
{6}
40 км в посл. час дождь 9/9 800 м
[Sc]
+5.1 +4.4 95 +1 +1 тепло 1032.1 1024.6
З 2-3
{5}
40 км 9/9 750 м
[Sc]
+4.8 +4.2 96 +2 +2 тепло 1032.1 1024.6
З 3 30 км {дождь} 9/9 800 м
[Sc]
+4.9 +4.3 96 +1 +1 по сезону 1032.5 1025.0 0.0
З 3 25 км в посл. час дождь 10/9 450 м
[Cu Sc]
+4.9 +4.4 97 +1 +1 тепло 1032.7 1025.2
З 3 15 км 10/10 420 м
[Cu Sc]
+4.8 +4.4 97 +1 +1 тепло 1033.0 1025.5
З 3 10 км {дождь} 10/10 100 м
[St]
+4.6 +4.3 98 +1 +1 по сезону 1033.1 1025.6 0.0
З 3-5
{5}
20 км в посл. час дождь 10/9 480 м
[Sc]
+4.5 +4.2 98 +1 +1 тепло 1033.1 1025.6
З 3-4
{5}
15 км дождь 10/10 150 м
[Sc]
+4.5 +4.2 98 +1 +1 тепло 1033.3 1025.8
З 3 10 км в посл. час дождь 10/9 150 м
[St]
+4.5 +4.2 98 +1 +1 по сезону 1033.4 1025.9 0.0
З 3-4
{5}
9000 м 10/10 120 м
[St]
+4.3 +4.0 98 0 0 тепло 1033.3 1025.8
З 4-6
{6}
9000 м в посл. час морось 10/10 120 м
[St]
+4.4 +4.0 97 -0 -0 тепло 1033.5 1026.0
З 4 9000 м слаб. морось {дождь} 10/10 100 м
[St]
+4.4 +4.1 98 -0 -0 по сезону 1033.8 1026.3 +3.9 +5.4 0.0
З 4-6
{6}
4000 м слаб. морось 10/9 120 м
[St]
+4.4 +4.2 99 -0 -0 тепло 1034.1 1026.6
З 4-6
{6}
4000 м слаб. морось 10/9 120 м
[St]
+4.5 +4.4 99 -0 -0 тепло 1034.5 1027.0
З 4 5000 м слаб. морось 10/9 90 м
[St]
+4.8 +4.6 99 0 0 по сезону 1035.1 1027.6 0.1
З 4-6
{6}
5000 м слаб. морось 10/9 90 м
[St]
+5.3 +5.2 99 +1 +1 тепло 1035.1 1027.6
З 5-6
{7}
6000 м слаб. морось 10/9 90 м
[St]
+5.6 +5.4 99 +1 +1 тепло 1035.3 1027.8
З 4-5
{7}
н/о н/о +5.9 +5.6 98 +2 +2 по сезону 1035.2 1027.7 0.0
З 3-4
{5}
5000 м слаб. морось 10/9 120 м
[St]
+6.3 +5.9 97 +3 +3 тепло 1035.0 1027.5
З 4-6
{6}
3000 м слаб. морось 10/9 90 м
[St]
+6.2 +5.9 98 +2 +2 тепло 1034.9 1027.4
З 4 3500 м слаб. морось 10/9 90 м
[St]
+6.3 +6.2 99 +2 +2 по сезону 1035.0 1027.5 0.2
СЗ 4-6
{6}
2000 м морось 10/9 90 м
[St]
+6.1 +6.0 99 +2 +2 тепло 1035.4 1027.9
СЗ 4-5
{6}
2000 м морось 10/9 90 м
[St]
+5.9 +5.9 100 +2 +2 тепло 1035.6 1028.1
СЗ 3 1800 м слаб. морось 10/9 50 м
[St]
+5.8 +5.8 100 +2 +2 по сезону 1035.7 1028.2 +4.3 +6.4 0.1
СЗ 4 8000 м слаб. морось 10/9 120 м
[St]
+5.6 +5.3 98 +1 +1 тепло 1036.0 1028.5
СЗ 2 12 км слаб. морось 10/9 120 м
[St]
+5.3 +5.2 99 +2 +2 тепло 1035.9 1028.4
З 1 5000 м в посл. час морось 10/9 90 м
[Sc]
+5.1 +4.9 99 +4 +4 тепло 1035.9 1028.4 0.2
З 1 7000 м дымка 10/9 90 м
[Sc]
+5.1 +5.0 99 +4 +4 тепло 1035.8 1028.3
З 1-1
{2}
6000 м дымка 10/9 540 м
[Sc]
+5.0 +4.8 99 +3 +3 тепло 1035.8 1028.3
З 1 6000 м дымка {морось} 10/9 300 м
[Sc]
+4.8 +4.6 99 +3 +3 тепло 1035.7 1028.2 0.2
З 2-2
{2}
6000 м дымка 10/9 540 м
[Sc]
+4.8 +4.6 99 +2 +2 тепло 1035.5 1028.0
З 1-2
{3}
5000 м дымка 10/9 500 м
[Sc]
+4.7 +4.4 98 +3 +3 тепло 1035.5 1028.0
З 2 6000 м дымка 10/9 480 м
[Sc]
+4.7 +4.5 99 +2 +2 тепло 1035.3 1027.8
З 2-2
{2}
7000 м дымка 10/9 480 м
[Sc]
+4.5 +4.1 97 +2 +2 тепло 1035.3 1027.8
СЗ 1-2
{2}
8000 м 10/9 480 м
[Sc]
+4.6 +4.0 96 +3 +3 тепло 1035.2 1027.7
ЮВ 1 10 км 10/9 300 м
[Sc]
+4.6 +4.1 97 +3 +3 тепло 1035.1 1027.6 +4.4 +5.8 0.2
ЮВ 1-1
{2}
10 км 10/9 480 м
[Sc]
+4.5 +3.9 96 +3 +3 тепло 1035.2 1027.7
Ю 1-1
{2}
11 км 9/9 480 м
[Sc]
+4.7 +4.1 96 +3 +3 тепло 1035.3 1027.8
штиль 0 9000 м 10/9 480 м
[Sc]
+4.9 +4.4 97 +4 +4 тепло 1035.3 1027.8
штиль 0-1
{2}
15 км 10/9 480 м
[Sc]
+5.3 +4.6 95 +4 +4 тепло 1035.2 1027.7
ЮЗ 2-3
{3}
35 км 10/9 450 м
[Sc]
+5.7 +3.5 86 +3 +3 тепло 1035.1 1027.6
ЮЗ 2 45 км 9/9 420 м
[Sc]
+5.6 +3.0 83 +3 +3 по сезону 1034.8 1027.3
ЮЗ 2-3
{5}
45 км 10/9 420 м
[Sc]
+5.5 +3.1 85 +3 +3 тепло 1034.6 1027.1
ЮЗ 3-4
{5}
45 км 10/9 420 м
[Sc]
+5.4 +2.8 83 +2 +2 тепло 1034.2 1026.7
ЮЗ 2 40 км 10/9 420 м
[Sc]
+5.3 +3.0 85 +3 +3 тепло 1034.1 1026.6
З 2-3
{4}
40 км 10/9 420 м
[Sc]
+5.2 +2.6 83 +3 +3 тепло 1034.3 1026.8
З 2-3
{3}
35 км 10/9 420 м
[Sc]
+4.9 +2.9 87 +2 +2 тепло 1034.5 1027.0
З 2 30 км 10/9 300 м
[Sc]
+4.5 +2.9 89 +2 +2 по сезону 1034.4 1026.9 +4.4 +5.7
З 1-2
{3}
20 км 10/9 420 м
[Sc]
+4.1 +3.0 93 +3 +3 тепло 1034.6 1027.1
З 2-3
{3}
15 км 10/9 400 м
[Sc]
+4.0 +2.8 92 +1 +1 тепло 1034.5 1027.0
З 2 15 км 10/9 420 м
[Sc]
+3.8 +2.4 91 +1 +1 по сезону 1034.6 1027.1
З 2-3
{5}
15 км 10/9 480 м
[Sc]
+4.1 +1.7 84 +1 +1 тепло 1034.6 1027.1
З 2-2
{3}
15 км 10/9 480 м
[Sc]
+3.9 +1.7 86 +1 +1 тепло 1034.5 1027.0
З 1 н/о н/о +3.9 +1.4 84 +3 +3 тепло 1034.5 1027.0
З 2-3
{4}
15 км 10/9 500 м
[Sc]
+3.9 +1.2 83 +1 +1 тепло 1034.3 1026.8
З 2-2
{3}
>70 км 10/9 600 м
[Sc]
+3.6 +1.1 84 +1 +1 тепло 1033.9 1026.4
СЗ 2 15 км 9/9 570 м
[Sc Ac As]
+3.4 +1.2 85 0 0 по сезону 1033.9 1026.3
СЗ 2-3
{3}
15 км 10/9 570 м
[Sc]
+3.2 +1.5 89 0 0 тепло 1033.7 1026.1
СЗ 3-3
{3}
10 км 10/9 540 м
[Sc]
+3.0 +1.1 87 -1 -1 тепло 1033.6 1026.0
СЗ 2 12 км 10/9 300 м
[Sc]
+3.1 +0.3 82 0 0 по сезону 1033.7 1026.1 +2.9 +4.4
ЮЗ 1-2
{2}
12 км 10/9 480 м
[Sc]
+3.1 +0.3 82 +2 +2 тепло 1033.8 1026.2
ЮЗ 2-2
{3}
10 км 10/9 480 м
[Sc]
+3.1 +1.0 86 0 0 тепло 1033.8 1026.2
ЮЗ 2 9000 м в посл. час морось 10/9 450 м
[Sc]
+3.3 +0.9 84 0 0 по сезону 1034.0 1026.4 0.0
ЮЗ 2-3
{3}
8000 м слаб. морось 10/9 450 м
[Sc]
+3.4 +1.3 86 0 +1 тепло 1034.2 1026.6
З 2-2
{2}
7000 м слаб. морось 10/9 450 м
[Sc]
+3.3 +1.1 85 0 0 тепло 1034.2 1026.6
ЮЗ 3 7000 м в посл. час морось 9/9 450 м
[Sc]
+3.6 +1.8 88 -0 -0 по сезону 1033.8 1026.3 0.0
З 3 8000 м 9/9 300 м
[Cu Sc]
+4.1 +1.9 86 0 0 тепло 1033.0 1025.5
З 4 9000 м 9/9 300 м
[Cu Sc]
+4.2 +2.1 86 -0 -0 тепло 1032.7 1025.2
З 4 8000 м 9/9 270 м
[Cu Sc]
+3.7 +2.1 89 -1 -1 по сезону 1032.8 1025.3
З 3 5000 м в посл. час морось 9/9 210 м
[Sc]
+3.0 +2.2 94 -1 -1 по сезону 1033.0 1025.4
З 3 5000 м дымка 9/9 240 м
[Sc]
+3.0 +2.3 95 -1 -1 тепло 1033.1 1025.5
З 2 5000 м дымка {морось} 10/9 200 м
[Sc]
+3.1 +2.1 93 -0 -0 по сезону 1032.8 1025.2 +2.6 +4.5 0.0
З 1 5000 м дымка 10/9 210 м
[Sc]
+3.1 +2.0 92 +1 +1 тепло 1032.9 1025.3
З 2-3
{3}
6000 м дымка 10/9 500 м
[Sc]
+3.0 +2.0 93 -0 -0 тепло 1032.7 1025.1
З 2 7000 м дымка 10/9 480 м
[Sc]
+3.2 +1.2 87 0 0 по сезону 1032.5 1025.0
З 2-2
{5}
9000 м в посл. час дождь 10/9 480 м
[Sc]
+3.0 +1.7 91 -0 -0 тепло 1032.5 1024.9
З 2-3
{3}
8000 м слаб. дождь 10/9 480 м
[Sc]
+2.9 +1.7 92 -0 -0 тепло 1032.3 1024.7
З 2 9000 м в посл. час дождь 10/9 300 м
[Sc]
+2.7 +1.7 93 -1 -1 по сезону 1032.3 1024.7 0.0
З 2-3
{5}
12 км слаб. дождь 10/9 420 м
[Sc]
+2.8 +1.1 89 -0 -0 тепло 1031.9 1024.3
З 3-4
{5}
13 км слаб. дождь 10/9 400 м
[Sc]
+2.7 +1.0 89 -1 -1 тепло 1031.6 1024.0
ЮЗ 3 12 км в посл. час дождь 10/9 450 м
[Sc]
+2.5 +0.9 89 -2 -2 по сезону 1031.1 1023.5 0.0
З 3-5
{6}
10 км слаб. дождь 10/9 420 м
[Sc]
+2.3 +0.9 90 -2 -2 тепло 1030.9 1023.3
З 3-5
{6}
10 км слаб. дождь 10/9 400 м
[Sc]
+2.2 +0.8 90 -2 -2 тепло 1030.9 1023.3
З 4 10 км в посл. час дождь 10/9 300 м
[St]
+1.9 +0.1 88 -3 -3 по сезону 1030.5 1022.9 +1.9 +3.3 0.0
З 4-6
{7}
8000 м в посл. час дождь 10/10 330 м
[St]
+1.7 -0.3 87 -3 -3 по сезону 1030.5 1022.9
З 5-8
{8}
6000 м в посл. час дождь 10/10 300 м
[St]
+1.3 -0.4 88 -5 -5 тепло 1030.3 1022.7
З 6 4300 м слаб. морось {дождь} 10/10 270 м
[St]
+1.4 -0.1 90 -5 -5 прохладно 1030.6 1023.0 0.0
З 7-10
{11}
4200 м в посл. час зёрна {снег, морось} 10/10 270 м
[St]
+1.1 -0.4 90 -6 -6 по сезону 1030.9 1023.3
З 4 4500 м в посл. час морось 10/10 330 м
[Sc]
+1.6 -0.3 87 -4 -4 тепло 1030.7 1023.1
З 4 4300 м дымка {снег, дождь} 10/10 360 м
[Sc]
+1.8 -0.6 84 -3 -3 по сезону 1030.4 1022.8 0.0
З 4-7
{7}
3800 м дымка 10/10 360 м
[St]
+2.1 +0.1 87 -3 -3 по сезону 1029.4 1021.8
З 5-9
{9}
3200 м слаб. морось 10/10 300 м
[St]
+2.0 +0.4 89 -4 -4 тепло 1028.9 1021.3
З 4 2300 м слаб. морось {снег} 10/10 210 м
[St]
+1.9 +1.1 94 -3 -3 по сезону 1029.2 1021.6 0.0
ЮЗ 6-8
{9}
2000 м слаб. морось 10/10 180 м
[St]
+2.0 +1.3 95 -4 -4 по сезону 1028.3 1020.8
З 5-9
{10}
2800 м слаб. морось 10/10 210 м
[St]
+2.3 +1.4 94 -3 -3 тепло 1028.2 1020.7
ЮЗ 6 3200 м слаб. морось {снег} 10/10 200 м
[St]
+2.4 +1.5 94 -4 -4 по сезону 1027.8 1020.3 +0.8 +2.4 0.0
З 4-6
{9}
4400 м слаб. морось 10/10 240 м
[St]
+2.7 +1.8 94 -2 -2 по сезону 1027.6 1020.1
З 6-9
{9}
7000 м в посл. час морось 10/10 270 м
[St]
+3.0 +1.6 91 -3 -3 тепло 1026.9 1019.4
ЮЗ 6 6000 м слаб. морось {снег} 10/10 240 м
[St]
+3.2 +2.0 92 -3 -3 по сезону 1026.5 1019.0 0.0
ЮЗ 5-8
{11}
4000 м слаб. морось 10/10 180 м
[St]
+3.2 +2.4 94 -2 -2 тепло 1026.2 1018.7
ЮЗ 7-10
{10}
3800 м слаб. морось 10/10 210 м
[St]
+3.3 +2.4 94 -3 -3 тепло 1025.6 1018.1
ЮЗ 7 9000 м в посл. час дождь {снег} 10/10 200 м
[St]
+3.6 +2.3 91 -3 -3 по сезону 1024.7 1017.2 0.0
ЮЗ 8 10 км 10/9 270 м
[St]
+3.7 +2.0 89 -3 -3 по сезону 1024.0 1016.5
ЮЗ 8-13
{13}
11 км 10/10 330 м
[St]
+3.7 +1.7 87 -3 -3 тепло 1022.8 1015.3
ЮЗ 8 12 км 10/10 420 м
[St]
+3.7 +1.0 83 -3 -3 по сезону 1022.3 1014.8
З 8-12
{14}
11 км 10/10 420 м
[St]
+3.5 +0.8 82 -3 -3 по сезону 1021.8 1014.3
ЮЗ 9-14
{16}
11 км 10/10 480 м
[Sc]
+3.5 +0.7 82 -3 -3 тепло 1020.8 1013.3
ЮЗ 9 11 км 10/10 300 м
[Sc]
+3.5 +0.5 81 -3 -3 по сезону 1019.7 1012.3 +2.3 +3.8 0.0
ЮЗ 8-12
{17}
9000 м в посл. час дождь 10/10 450 м
[Sc]
+3.5 +1.1 84 -3 -3 тепло 1019.4 1012.0
ЮЗ 8 4800 м слаб. морось {дождь} 10/10 210 м
[Sc]
+3.7 +2.0 89 -3 -3 тепло 1018.7 1011.3
З 7 3200 м слаб. морось {дождь} 10/10 210 м
[Frnb]
+3.7 +2.7 93 -2 -2 по сезону 1018.4 1011.0 0.0
З 7 5000 м дождь {морось} 10/9 150 м
[Frnb]
+4.3 +3.5 95 -2 -2 по сезону 1017.9 1010.5
З 7-11
{13}
9000 м дождь 10/9 240 м
[Cu med, cong]
+4.9 +4.1 95 -1 -1 тепло 1017.6 1010.2
З 6 5000 м дождь {морось} 10/9 150 м
[Frnb]
+5.4 +4.9 97 0 0 по сезону 1017.4 1010.0 0.2
З 7 9000 м слаб. дождь 10/9 150 м
[Cu med, cong]
+6.2 +5.4 95 +1 +1 тепло 1016.7 1009.4
З 6 12 км слаб. дождь 10/9 240 м
[Cu med, cong]
+6.7 +5.8 94 +2 +2 тепло 1016.3 1009.0
З 7 8000 м слаб. дождь 10/9 210 м
[Cu med, cong]
+6.7 +5.9 95 +2 +2 по сезону 1016.3 1009.0 2
З 10 25 км в посл. час ливневой дождь 8/8 210 м
[Cb cap]
+6.1 +4.1 87 0 0 тепло 1016.5 1009.2
З 8-11
{11}
40 км 3/3 700 м
[Cu Sc]
+6.2 +3.6 83 +1 +1 тепло 1016.4 1009.1
З 13 4200 м ливневой дождь 9/9 300 м
[Cb cap]
+4.1 +2.2 87 -3 -3 по сезону 1017.9 1010.5 +3.3 +7.1 1
З 7-10
{16}
35 км в посл. час ливневой дождь 3/3 1200 м
[Sc]
+4.7 +2.1 83 -1 -1 тепло 1018.2 1010.8
З 10 28 км в посл. час ливневой дождь 6/6 150 м
[Cu med, cong]
+4.8 +2.7 86 -2 -2 тепло 1018.4 1011.0
З 8 45 км в посл. час ливневой дождь 6/6 600 м
[Cu Sc]
+3.9 +2.2 89 -2 -2 по сезону 1019.0 1011.6 0.7
З 8 35 км 9/9 540 м
[Cu Sc]
+4.2 +1.9 85 -2 -2 тепло 1019.8 1012.4
З 8 12 км слаб. ливневой дождь 9/9 180 м
[Cu med, cong]
+4.1 +2.3 88 -2 -2 тепло 1020.6 1013.2
З 9 30 км в посл. час ливневой дождь 9/9 300 м
[Cu Sc]
+4.2 +1.3 81 -2 -2 по сезону 1021.2 1013.8 0.7
З 9 30 км 9/9 660 м
[Cu Sc]
+4.1 +1.3 82 -2 -2 тепло 1022.0 1014.6
З 9 27 км слаб. ливневой дождь 9/9 720 м
[Cu Sc]
+4.2 +1.5 83 -2 -2 тепло 1023.0 1015.5
З 8 27 км в посл. час ливневой дождь 9/9 540 м
[Cu Sc]
+3.9 +1.5 84 -2 -2 по сезону 1023.7 1016.2 0.0
З 8 27 км слаб. ливневой дождь 9/9 480 м
[Cu Sc]
+3.8 +1.2 83 -2 -2 тепло 1024.4 1016.9
З 8 30 км в посл. час ливневой дождь 8/8 960 м
[Cu Sc]
+3.7 +0.9 82 -3 -3 тепло 1025.2 1017.7
СЗ 7 10 км слаб. ливневой дождь 9/9 200 м
[Cu Sc]
+2.8 +1.5 91 -4 -4 по сезону 1026.2 1018.7 +2.8 +5.4 1
З 8 20 км в посл. час ливневой дождь 9/9 720 м
[Cu Sc]
+3.3 +1.0 85 -3 -3 тепло 1027.1 1019.6
З 7-10
{11}
25 км 6/6 1500 м
[Sc]
+3.3 +0.2 80 -3 -3 тепло 1027.9 1020.4
З 8 25 км {ливн. дождь} 9/9 1440 м
[Sc]
+4.2 +0.9 79 -2 -2 по сезону 1028.9 1021.4 0.0
З 7 25 км в посл. час ливневой дождь 8/5 1050 м
[Cu Sc Ci fib]
+4.7 +0.3 73 -1 -0 тепло 1030.0 1022.5
СЗ 8-11
{11}
25 км 5/4 1000 м
[Cu med, cong Ci fib]
+5.9 +0.4 68 +1 +1 тепло 1030.4 1022.9
СЗ 10 25 км {ливн. дождь} 6/5 960 м
[Cu med, cong Ci fib]
+5.9 -0.2 65 0 0 по сезону 1030.5 1023.0 0.0
СЗ 9 25 км 6/4 960 м
[Cu med, cong Ci fib]
+6.2 -0.2 64 +1 +1 тепло 1030.9 1023.4
СЗ 6 25 км 9/4 960 м
[Cu med, cong Ci fib]
+5.9 +0.4 68 +1 +2 тепло 1031.1 1023.6
З 5 25 км 9/4 1020 м
[Cu med, cong Ac trans]
+5.9 +0.2 67 +2 +2 по сезону 1031.2 1023.7
З 5 25 км 9/1 1050 м
[Cu hum Ac trans Ci fib]
+4.9 +0.5 73 0 0 тепло 1031.7 1024.2
З 4 25 км 9/1 1020 м
[Cu hum Ac trans Ci fib]
+3.5 -0.4 76 -1 -1 тепло 1031.9 1024.4
Местоположение метеостанции Ганновер (Германия): широта 52.47 долгота 9.70 высота над уровнем моря 55 м.
В архиве по умолчанию представлена погода в Ганновере за последнюю неделю. Архивные данные за месяц целиком и за предыдущие месяцы, начиная с января 2011 года, Вы можете получить, выбрав интересующий диапазон дат из раскрывающегося списка и нажав кнопку "Найти!".
*Определитесь, кто Вы:
Внимание! Время в таблицах - всемирное. Для получения местного времени необходимо прибавить поправку, которая равна 1 ч.
Смотрите также архив погоды в соседних городах и на ближайших метеорологических станциях:
Партнеры нашего сайта:      
Пояснения к столбцам:
  • Ветер - указаны скорость ветра в м/с - средняя за 10 мин, порывы в срок и между сроками (в фигурных скобках) и направление, откуда дует ветер: С - северный,
  • СВ - северо-восточный, В - восточный, ЮВ - юго-восточный, Ю - южный, ЮЗ - юго-западный, З - западный, СЗ - северо-западный.
  • Видимость - горизонтальная дальность видимости в метрах или километрах. При видимости от 1 до 10 км при отсутствии осадков обычно наблюдается дымка, при ухудшении видимости до 1 км и менее - туман. В сухую погоду видимость может ухудшаться дымом, пылью или мглою.
  • Явления - указаны атмосферные явления, наблюдавшиеся в срок или в последний час перед сроком; фигурными скобками обозначены явления, наблюдавшиеся между сроками (за 1-3 часа до срока); квадратными скобками обозначены град или гололедные отложения с указанием их диаметра в мм.
  • Облачность - указаны через наклонную черту общая и нижняя облачность в баллах и высота нижней границы облаков в метрах; квадратными скобками обозначены формы облаков: Ci - перистые, Cs - перисто-слоистые, Cc - перисто-кучевые, Ac - высококучевые, As - высокослоистые, Sc - слоисто-кучевые, Ns - слоисто-дождевые, Cu - кучевые, Cb - кучево-дождевые. Подробнее классификацию облаков см. в Атласе облаков (PDF).
  • T - Температура воздуха - температура, измеренная на высоте 2 м над землей.
  • Td - Температура точки росы - температура, при понижении до которой содержащийся в воздухе водяной пар достигнет насыщения.
  • f - Относительная влажность воздуха - влажноcть воздуха, измеренная на высоте 2 м над землей.
  • Te - Эффективная температура - температура, которую ощущает одетый по сезону человек в тени. Характеристика душности погоды. При расчете учитывается влияние влажности воздуха и скорости ветра на теплоощущения человека.
  • Tes - Эффективная температура на солнце - температура, которую ощущает человек, с поправкой на солнечный нагрев. Характеристика знойности погоды. Зависит от высоты солнца над горизонтом, облачности и скорости ветра. Ночью, в пасмурную погоду, а также при ветре 12 м/с и более поправка равна нулю.
  • P - Атмосферное давление - приведенное к уровню моря атмосферное давление.
  • Po - Атмосферное давление - измеренное на уровне метеостанции атмосферное давление.
  • Tmin - Минимальная температура - минимум температуры воздуха на высоте 2 м над землей.
  • Tmax - Максимальная температура - максимум температуры воздуха на высоте 2 м над землей.
  • R - Количество осадков - Количество выпавших осадков за период времени, мм. При наведении курсора мыши на число - период времени, за который выпало указанное количество осадков.
  • R24 - Количество осадков - Количество выпавших осадков за 24 часа, мм.
  • S - Снежный покров - Высота снежного покрова, см. При наведении курсора мыши на число - состояние снежного покрова и степень покрытия местности в баллах.